User: anonymous   Login
Location: Albany
(42.6526°N, 73.7562°W)
Time: 09:33:53
(UTC+00:00)
Language:

Cosmos 1697 Rocket - Orbit

View from above orbital plane
View from above orbital plane
View from above satellite
View from above satellite

Ground track
Ground track

The orbit data is extracted from the following two-line orbital elements,

1 16182U 85097B   20025.79995991  .00000139  00000-0  94278-4 0  9991
2 16182  71.0024 163.7519 0005622  52.3378  51.0888 14.16247140771093
Epoch (UTC): 25 January 2020 19:11:56
Eccentricity: 0.0005622
inclination: 71.0024°
perigee height: 834 km
apogee height: 842 km
right ascension of ascending node: 163.7519°
argument of perigee: 52.3378°
revolutions per day: 14.16247140
mean anomaly at epoch: 51.0888°
orbit number at epoch: 77109

The dashed part of the orbit path shows where the satellite is in the earth's shadow,  

DLR